|
NORAD ID: 38261 Int'l Code: 2012-021E
Perigee: 345.4 km
Apogee: 411.9 km
Inclination: 97.4 °
Period: 92.0 minutes
Semi major axis: 6749 km
Launch date: May 10, 2012
Source: People's Republic of China (PRC)
Note: This is SATELLITE DEBRIS
Two Line Element Set (TLE):
1 38261U 12021E 13140.83199066 .00442044 00000-0 39401-2 0 2762
2 38261 097.3917 274.0580 0049286 241.7991 117.8287 15.65610475 57305
Source:
NASA's NSSDC Master Catalog entry for CZ-4B DEB
|